TimeIST,TemperatureF,Dew PointF,Humidity,Sea Level PressureIn,VisibilityMPH,Wind Direction,Wind SpeedMPH,Gust SpeedMPH,PrecipitationIn,Events,Conditions,WindDirDegrees,DateUTC
12:00 AM,50.0,42.8,76,30.06,6.2,NE,13.8,-,N/A,,Mostly Cloudy,50,2012-10-25 23:00:00
12:30 AM,48.2,44.6,87,30.06,6.2,NE,12.7,-,N/A,,Mostly Cloudy,40,2012-10-25 23:30:00
1:00 AM,49,44,76,30.07,11,NE,15.7,,,,Overcast,40,2012-10-26 00:00:00
1:00 AM,50.0,44.6,82,30.06,6.2,NE,15.0,-,N/A,,Mostly Cloudy,40,2012-10-26 00:00:00
1:30 AM,50.0,44.6,82,30.06,6.2,NE,13.8,-,N/A,,Mostly Cloudy,50,2012-10-26 00:30:00
2:00 AM,50.0,44.6,82,30.04,6.2,NE,11.5,-,N/A,,Mostly Cloudy,50,2012-10-26 01:00:00
2:30 AM,50.0,42.8,76,30.04,6.2,NE,15.0,-,N/A,,Mostly Cloudy,40,2012-10-26 01:30:00
3:00 AM,50.0,42.8,76,30.04,6.2,NE,15.0,-,N/A,,Mostly Cloudy,40,2012-10-26 02:00:00
3:30 AM,50.0,41.0,71,30.06,6.2,NE,13.8,-,N/A,,Mostly Cloudy,50,2012-10-26 02:30:00
4:00 AM,50.0,41.0,71,30.06,6.2,NE,13.8,-,N/A,,Mostly Cloudy,50,2012-10-26 03:00:00
4:30 AM,48.2,41.0,76,30.06,6.2,NE,13.8,-,N/A,,Mostly Cloudy,40,2012-10-26 03:30:00
5:00 AM,48.2,42.8,82,30.06,6.2,NE,15.0,-,N/A,,Mostly Cloudy,40,2012-10-26 04:00:00
5:30 AM,48.2,41.0,76,30.06,6.2,NE,16.1,-,N/A,,Mostly Cloudy,50,2012-10-26 04:30:00
6:00 AM,48.2,41.0,76,30.06,6.2,NE,15.0,-,N/A,,Mostly Cloudy,40,2012-10-26 05:00:00
6:30 AM,48.2,41.0,76,30.06,6.2,NE,15.0,-,N/A,,Mostly Cloudy,40,2012-10-26 05:30:00
7:00 AM,47,41,72,30.09,12,NE,17.9,,,,Overcast,40,2012-10-26 06:00:00
7:00 AM,46.4,41.0,81,30.06,6.2,NE,17.3,-,N/A,,Mostly Cloudy,40,2012-10-26 06:00:00
7:30 AM,46.4,41.0,81,30.06,6.2,NNE,19.6,-,N/A,,Mostly Cloudy,30,2012-10-26 06:30:00
8:00 AM,44.6,39.2,81,30.06,6.2,NE,19.6,-,N/A,,Mostly Cloudy,40,2012-10-26 07:00:00
8:30 AM,44.6,39.2,81,30.09,6.2,NE,17.3,-,N/A,,Mostly Cloudy,40,2012-10-26 07:30:00
9:00 AM,44.6,39.2,81,30.09,6.2,NE,15.0,-,N/A,,Mostly Cloudy,40,2012-10-26 08:00:00
9:30 AM,44.6,37.4,76,30.09,6.2,NNE,15.0,-,N/A,,Mostly Cloudy,30,2012-10-26 08:30:00
10:00 AM,42.8,37.4,81,30.09,6.2,NE,17.3,-,N/A,,Mostly Cloudy,40,2012-10-26 09:00:00
10:30 AM,42.8,35.6,76,30.12,6.2,NE,17.3,-,N/A,,Mostly Cloudy,50,2012-10-26 09:30:00
11:00 AM,42.8,35.6,76,30.12,6.2,ENE,16.1,-,N/A,,Scattered Clouds,60,2012-10-26 10:00:00
11:30 AM,44.6,35.6,71,30.12,6.2,NE,19.6,-,N/A,,Partly Cloudy,40,2012-10-26 10:30:00
12:00 PM,44.6,35.6,71,30.12,6.2,NNE,13.8,-,N/A,,Partly Cloudy,20,2012-10-26 11:00:00
12:30 PM,44.6,35.6,71,30.12,6.2,NNE,16.1,-,N/A,,Scattered Clouds,20,2012-10-26 11:30:00
1:00 PM,46,34,53,30.13,25,NNE,20.1,,,,Scattered Clouds,30,2012-10-26 12:00:00
1:00 PM,46.4,33.8,62,30.12,6.2,NNE,20.7,-,N/A,,Partly Cloudy,30,2012-10-26 12:00:00
1:30 PM,46.4,33.8,62,30.12,6.2,NNE,20.7,-,N/A,,Scattered Clouds,20,2012-10-26 12:30:00
2:00 PM,46.4,32.0,57,30.12,6.2,NE,19.6,-,N/A,,Partly Cloudy,40,2012-10-26 13:00:00
2:30 PM,46.4,32.0,57,30.12,6.2,NNE,13.8,-,N/A,,Scattered Clouds,20,2012-10-26 13:30:00
3:00 PM,46.4,30.2,53,30.09,6.2,NNE,18.4,-,N/A,,Scattered Clouds,20,2012-10-26 14:00:00
3:30 PM,46.4,30.2,53,30.12,6.2,NNE,20.7,-,N/A,,Scattered Clouds,20,2012-10-26 14:30:00
4:00 PM,46.4,28.4,50,30.12,6.2,NNE,19.6,-,N/A,,Scattered Clouds,30,2012-10-26 15:00:00
4:30 PM,46.4,28.4,50,30.12,6.2,NNE,18.4,-,N/A,,Scattered Clouds,20,2012-10-26 15:30:00
5:00 PM,44.6,24.8,46,30.12,6.2,NNE,19.6,-,N/A,,Scattered Clouds,20,2012-10-26 16:00:00
5:30 PM,42.8,37.4,81,30.12,6.2,NNE,16.1,-,N/A,,Partly Cloudy,30,2012-10-26 16:30:00
6:00 PM,42.8,24.8,49,30.12,6.2,NNE,16.1,-,N/A,,Scattered Clouds,20,2012-10-26 17:00:00
6:30 PM,41.0,26.6,57,30.15,6.2,NNE,12.7,-,N/A,,Partly Cloudy,30,2012-10-26 17:30:00
7:00 PM,40,27,47,30.17,19,North,8.9,,,,Scattered Clouds,10,2012-10-26 18:00:00
7:00 PM,41.0,26.6,57,30.15,6.2,North,8.1,-,N/A,,Partly Cloudy,10,2012-10-26 18:00:00
7:30 PM,39.2,26.6,61,30.15,6.2,North,9.2,-,N/A,,Partly Cloudy,10,2012-10-26 18:30:00
8:00 PM,37.4,26.6,65,30.18,6.2,North,8.1,-,N/A,,Partly Cloudy,360,2012-10-26 19:00:00
8:30 PM,37.4,26.6,65,30.18,6.2,NE,5.8,-,N/A,,Partly Cloudy,40,2012-10-26 19:30:00
9:00 PM,35.6,26.6,70,30.18,6.2,North,8.1,-,N/A,,Partly Cloudy,10,2012-10-26 20:00:00
9:30 PM,35.6,26.6,70,30.21,6.2,NNW,2.3,-,N/A,,Partly Cloudy,340,2012-10-26 20:30:00
10:00 PM,33.8,28.4,81,30.21,6.2,NNW,4.6,-,N/A,,Partly Cloudy,340,2012-10-26 21:00:00
10:30 PM,33.8,28.4,81,30.21,6.2,NNW,6.9,-,N/A,,Partly Cloudy,340,2012-10-26 21:30:00
11:00 PM,33.8,28.4,81,30.24,6.2,North,5.8,-,N/A,,Partly Cloudy,350,2012-10-26 22:00:00
11:30 PM,33.8,28.4,81,30.24,6.2,North,5.8,-,N/A,,Partly Cloudy,360,2012-10-26 22:30:00